VIV1427 MMVR-MMMX

Flight info

Callsign VIV1427
Flight time 0h 37m
Altitude 32000
Route AXORO2 AXORO UT61 AVALI UT169 UMAVO UT101 ENAGA ENAGA3A
Aircraft A320/M-SDE3FGHIRWY/LB1

Departure

Time 2026-04-18 03:37
Airport General Heriberto Jara International Airport (MMVR)

Arrival

Time 2026-04-18 04:15
Airport Mexico City Benito Juárez International Airport (MMMX)
Time Latitude Longitude Altitude Speed Heading
2026-04-18 03:17 19.14271 -96.18436 92 ft 0 kts 102°
2026-04-18 03:27 19.14271 -96.18439 92 ft 2 kts 102°
2026-04-18 03:27 19.14274 -96.18456 95 ft 3 kts 98°
2026-04-18 03:27 19.14277 -96.18475 94 ft 2 kts 90°
2026-04-18 03:28 19.14276 -96.18489 96 ft 2 kts 65°
2026-04-18 03:28 19.14270 -96.18500 96 ft 2 kts 31°
2026-04-18 03:28 19.14260 -96.18505 97 ft 2 kts 15°
2026-04-18 03:28 19.14250 -96.18508 97 ft 2 kts 10°
2026-04-18 03:29 19.14239 -96.18510 95 ft 2 kts
2026-04-18 03:29 19.14236 -96.18510 95 ft 0 kts
2026-04-18 03:30 19.14248 -96.18508 95 ft 3 kts 11°
2026-04-18 03:30 19.14285 -96.18500 96 ft 8 kts 11°
2026-04-18 03:30 19.14330 -96.18502 96 ft 2 kts 321°
2026-04-18 03:31 19.14339 -96.18513 98 ft 1 kts 307°
2026-04-18 03:31 19.14343 -96.18522 97 ft 2 kts 292°
2026-04-18 03:31 19.14348 -96.18538 96 ft 3 kts 290°
2026-04-18 03:31 19.14359 -96.18563 98 ft 3 kts 301°
2026-04-18 03:32 19.14379 -96.18572 98 ft 4 kts 338°
2026-04-18 03:32 19.14414 -96.18570 97 ft 7 kts
2026-04-18 03:32 19.14470 -96.18558 98 ft 9 kts 12°
2026-04-18 03:32 19.14543 -96.18554 98 ft 12 kts 346°
2026-04-18 03:33 19.14603 -96.18556 97 ft 9 kts
2026-04-18 03:33 19.14673 -96.18542 96 ft 11 kts 10°
2026-04-18 03:33 19.14743 -96.18547 100 ft 9 kts 352°
2026-04-18 03:33 19.14798 -96.18555 103 ft 7 kts 353°
2026-04-18 03:34 19.14840 -96.18560 105 ft 6 kts 353°
2026-04-18 03:34 19.14887 -96.18565 108 ft 7 kts 353°
2026-04-18 03:34 19.14940 -96.18580 111 ft 8 kts 323°
2026-04-18 03:34 19.14954 -96.18637 111 ft 9 kts 265°
2026-04-18 03:35 19.14901 -96.18668 110 ft 0 kts 188°
2026-04-18 03:35 19.14892 -96.18669 110 ft 0 kts 188°
2026-04-18 03:35 19.14891 -96.18669 109 ft 0 kts 188°
2026-04-18 03:37 19.14810 -96.18682 106 ft 46 kts 188°
2026-04-18 03:37 19.14188 -96.18813 99 ft 130 kts 191°
2026-04-18 03:37 19.13114 -96.19024 305 ft 174 kts 188°
2026-04-18 03:37 19.11884 -96.19195 1053 ft 179 kts 184°
2026-04-18 03:38 19.10696 -96.19472 1762 ft 182 kts 209°
2026-04-18 03:38 19.09859 -96.20539 1997 ft 204 kts 250°
2026-04-18 03:38 19.09850 -96.22069 2271 ft 217 kts 290°
2026-04-18 03:38 19.10508 -96.23525 2678 ft 224 kts 297°
2026-04-18 03:39 19.11258 -96.25076 2907 ft 249 kts 297°
2026-04-18 03:39 19.12087 -96.26786 3347 ft 270 kts 297°
2026-04-18 03:39 19.12949 -96.28571 4132 ft 275 kts 296°
2026-04-18 03:39 19.13818 -96.30381 5031 ft 276 kts 296°
2026-04-18 03:40 19.14689 -96.32201 5911 ft 278 kts 296°
2026-04-18 03:40 19.15562 -96.34030 6777 ft 280 kts 296°
2026-04-18 03:40 19.16439 -96.35871 7558 ft 282 kts 297°
2026-04-18 03:40 19.17326 -96.37735 8329 ft 285 kts 298°
2026-04-18 03:41 19.18219 -96.39614 9084 ft 287 kts 298°
2026-04-18 03:41 19.19123 -96.41511 9827 ft 290 kts 299°
2026-04-18 03:41 19.20037 -96.43423 10242 ft 303 kts 299°
2026-04-18 03:41 19.21027 -96.45490 10379 ft 325 kts 298°
2026-04-18 03:42 19.22081 -96.47695 10494 ft 345 kts 298°
2026-04-18 03:42 19.23184 -96.50011 10773 ft 357 kts 298°
2026-04-18 03:42 19.24306 -96.52378 11269 ft 362 kts 298°
2026-04-18 03:42 19.25436 -96.54768 11840 ft 365 kts 298°
2026-04-18 03:43 19.26577 -96.57182 12398 ft 367 kts 297°
2026-04-18 03:43 19.27725 -96.59608 12936 ft 370 kts 297°
2026-04-18 03:43 19.28884 -96.62055 13511 ft 373 kts 297°
2026-04-18 03:43 19.30051 -96.64517 14020 ft 376 kts 297°
2026-04-18 03:44 19.31229 -96.67001 14488 ft 379 kts 297°
2026-04-18 03:44 19.32421 -96.69512 14955 ft 383 kts 297°
2026-04-18 03:44 19.33624 -96.72045 15412 ft 386 kts 297°
2026-04-18 03:44 19.34838 -96.74599 15855 ft 390 kts 297°
2026-04-18 03:45 19.36064 -96.77177 16310 ft 393 kts 297°
2026-04-18 03:45 19.37297 -96.79774 16769 ft 397 kts 297°
2026-04-18 03:45 19.38530 -96.82381 17516 ft 389 kts 296°
2026-04-18 03:45 19.39692 -96.84846 18724 ft 369 kts 296°
2026-04-18 03:46 19.40808 -96.87215 19751 ft 353 kts 296°
2026-04-18 03:46 19.41896 -96.89525 20408 ft 349 kts 296°
2026-04-18 03:46 19.42980 -96.91823 20923 ft 349 kts 296°
2026-04-18 03:46 19.44066 -96.94130 21322 ft 348 kts 296°
2026-04-18 03:47 19.45143 -96.96419 21446 ft 345 kts 296°
2026-04-18 03:47 19.46213 -96.98687 21568 ft 343 kts 296°
2026-04-18 03:47 19.47277 -97.00939 21710 ft 340 kts 296°
2026-04-18 03:47 19.48333 -97.03178 21829 ft 339 kts 296°
2026-04-18 03:48 19.49381 -97.05404 21949 ft 337 kts 296°
2026-04-18 03:48 19.50432 -97.07631 22078 ft 341 kts 296°
2026-04-18 03:48 19.51511 -97.09921 22208 ft 353 kts 296°
2026-04-18 03:48 19.52610 -97.12253 22318 ft 364 kts 296°
2026-04-18 03:49 19.53758 -97.14696 22463 ft 375 kts 296°
2026-04-18 03:49 19.54940 -97.17210 22589 ft 386 kts 296°
2026-04-18 03:49 19.56156 -97.19793 22717 ft 397 kts 296°
2026-04-18 03:49 19.57404 -97.22443 22846 ft 407 kts 296°
2026-04-18 03:50 19.58680 -97.25159 22978 ft 416 kts 296°
2026-04-18 03:50 19.59983 -97.27939 23108 ft 425 kts 296°
2026-04-18 03:50 19.61312 -97.30778 23255 ft 433 kts 296°
2026-04-18 03:50 19.62654 -97.33654 23524 ft 437 kts 296°
2026-04-18 03:51 19.64008 -97.36552 23811 ft 440 kts 296°
2026-04-18 03:51 19.65369 -97.39463 24085 ft 441 kts 296°
2026-04-18 03:51 19.66737 -97.42381 24379 ft 443 kts 296°
2026-04-18 03:51 19.68113 -97.45314 24687 ft 444 kts 296°
2026-04-18 03:52 19.69474 -97.48221 24974 ft 446 kts 295°
2026-04-18 03:52 19.70858 -97.51180 25259 ft 448 kts 295°
2026-04-18 03:52 19.72245 -97.54149 25547 ft 450 kts 295°
2026-04-18 03:52 19.73639 -97.57135 25840 ft 452 kts 295°
2026-04-18 03:53 19.75039 -97.60138 26148 ft 453 kts 295°
2026-04-18 03:53 19.76441 -97.63149 26452 ft 455 kts 295°
2026-04-18 03:53 19.77844 -97.66167 26728 ft 457 kts 295°
2026-04-18 03:53 19.79251 -97.69198 27031 ft 458 kts 295°
2026-04-18 03:54 19.80665 -97.72237 27316 ft 460 kts 295°
2026-04-18 03:54 19.82066 -97.75244 27692 ft 460 kts 294°
2026-04-18 03:54 19.83484 -97.78285 28132 ft 458 kts 294°
2026-04-18 03:54 19.84899 -97.81318 28545 ft 458 kts 294°
2026-04-18 03:55 19.86309 -97.84349 28926 ft 457 kts 294°
2026-04-18 03:55 19.87717 -97.87378 29339 ft 457 kts 294°
2026-04-18 03:55 19.89121 -97.90403 29790 ft 456 kts 294°
2026-04-18 03:55 19.90524 -97.93429 29992 ft 456 kts 294°
2026-04-18 03:56 19.93324 -97.99466 30029 ft 455 kts 294°
2026-04-18 03:56 19.96140 -98.05543 30066 ft 463 kts 294°
2026-04-18 03:57 20.00212 -98.14816 30047 ft 459 kts 285°
2026-04-18 03:58 20.01121 -98.21486 29907 ft 455 kts 267°
2026-04-18 03:58 20.00776 -98.24827 29715 ft 454 kts 257°
2026-04-18 03:58 20.00110 -98.28109 29540 ft 455 kts 257°
2026-04-18 03:58 19.99444 -98.31393 29363 ft 455 kts 257°
2026-04-18 03:59 19.98789 -98.34648 29192 ft 456 kts 257°
2026-04-18 03:59 19.98125 -98.37958 29012 ft 456 kts 257°
2026-04-18 03:59 19.97460 -98.41262 28835 ft 457 kts 257°
2026-04-18 03:59 19.96795 -98.44565 28653 ft 458 kts 257°
2026-04-18 04:00 19.96125 -98.47878 28478 ft 458 kts 257°
2026-04-18 04:00 19.95452 -98.51194 28294 ft 459 kts 257°
2026-04-18 04:00 19.94776 -98.54511 28118 ft 460 kts 257°
2026-04-18 04:00 19.94100 -98.57833 27934 ft 461 kts 257°
2026-04-18 04:01 19.93423 -98.61163 27757 ft 461 kts 257°
2026-04-18 04:01 19.92745 -98.64505 27560 ft 462 kts 257°
2026-04-18 04:01 19.92065 -98.67845 27379 ft 464 kts 257°
2026-04-18 04:01 19.91379 -98.71196 27222 ft 465 kts 256°
2026-04-18 04:02 19.90396 -98.74471 26312 ft 467 kts 244°
2026-04-18 04:02 19.88794 -98.77501 25205 ft 472 kts 239°
2026-04-18 04:02 19.87127 -98.80469 24117 ft 462 kts 239°
2026-04-18 04:02 19.85487 -98.83363 22968 ft 451 kts 239°
2026-04-18 04:03 19.83889 -98.86186 21801 ft 441 kts 239°
2026-04-18 04:03 19.82329 -98.88953 20724 ft 431 kts 240°
2026-04-18 04:03 19.80827 -98.91630 19977 ft 425 kts 240°
2026-04-18 04:03 19.79321 -98.94326 19353 ft 422 kts 240°
2026-04-18 04:04 19.77835 -98.96992 18710 ft 418 kts 240°
2026-04-18 04:04 19.76365 -98.99625 18358 ft 408 kts 240°
2026-04-18 04:04 19.74945 -99.02161 18228 ft 392 kts 240°
2026-04-18 04:04 19.73580 -99.04600 18100 ft 377 kts 240°
2026-04-18 04:05 19.72269 -99.06948 17969 ft 363 kts 240°
2026-04-18 04:05 19.71005 -99.09209 17841 ft 350 kts 240°
2026-04-18 04:05 19.69781 -99.11396 17665 ft 340 kts 240°
2026-04-18 04:05 19.68582 -99.13530 16992 ft 336 kts 240°
2026-04-18 04:06 19.67380 -99.15668 16470 ft 335 kts 240°
2026-04-18 04:06 19.66195 -99.17776 15895 ft 331 kts 239°
2026-04-18 04:06 19.65022 -99.19866 15257 ft 329 kts 239°
2026-04-18 04:06 19.63854 -99.21943 14613 ft 327 kts 239°
2026-04-18 04:07 19.62697 -99.24000 14197 ft 319 kts 239°
2026-04-18 04:07 19.61531 -99.25916 14027 ft 300 kts 227°
2026-04-18 04:07 19.59889 -99.27114 13896 ft 279 kts 196°
2026-04-18 04:07 19.58034 -99.27261 13647 ft 264 kts 165°
2026-04-18 04:08 19.56430 -99.26463 13278 ft 256 kts 142°
2026-04-18 04:08 19.55020 -99.25349 12965 ft 250 kts 140°
2026-04-18 04:08 19.53610 -99.24300 12663 ft 246 kts 149°
2026-04-18 04:08 19.52575 -99.23810 12461 ft 247 kts 160°
2026-04-18 04:09 19.50866 -99.23485 12185 ft 252 kts 176°
2026-04-18 04:09 19.49107 -99.23458 11909 ft 253 kts 177°
2026-04-18 04:09 19.47339 -99.23432 11622 ft 254 kts 177°
2026-04-18 04:09 19.45566 -99.23405 11331 ft 255 kts 177°
2026-04-18 04:10 19.43789 -99.23375 11029 ft 256 kts 177°
2026-04-18 04:10 19.42008 -99.23344 10741 ft 253 kts 177°
2026-04-18 04:10 19.40287 -99.23259 10460 ft 242 kts 166°
2026-04-18 04:10 19.38808 -99.22617 10181 ft 223 kts 142°
2026-04-18 04:11 19.37769 -99.21462 9808 ft 211 kts 117°
2026-04-18 04:11 19.37285 -99.20082 9655 ft 191 kts 97°
2026-04-18 04:11 19.37283 -99.18767 9531 ft 169 kts 79°
2026-04-18 04:11 19.37636 -99.17624 9408 ft 159 kts 62°
2026-04-18 04:12 19.38193 -99.16614 9285 ft 159 kts 59°
2026-04-18 04:12 19.38758 -99.15609 9170 ft 160 kts 60°
2026-04-18 04:12 19.39322 -99.14606 9044 ft 157 kts 60°
2026-04-18 04:12 19.39881 -99.13610 8801 ft 159 kts 61°
2026-04-18 04:13 19.40448 -99.12619 8387 ft 157 kts 59°
2026-04-18 04:13 19.40997 -99.11622 8016 ft 156 kts 60°
2026-04-18 04:13 19.41526 -99.10628 7779 ft 155 kts 59°
2026-04-18 04:13 19.42087 -99.09638 7592 ft 157 kts 56°
2026-04-18 04:14 19.42662 -99.08654 7401 ft 157 kts 58°
2026-04-18 04:14 19.43218 -99.07661 7310 ft 153 kts 58°
2026-04-18 04:14 19.43707 -99.06803 7303 ft 119 kts 58°
2026-04-18 04:14 19.44064 -99.06172 7301 ft 78 kts 60°
2026-04-18 04:15 19.44241 -99.05843 7301 ft 25 kts 58°
2026-04-18 04:15 19.44295 -99.05821 7302 ft 2 kts 346°
2026-04-18 04:15 19.44310 -99.05824 7303 ft 3 kts 349°
2026-04-18 04:15 19.44334 -99.05829 7303 ft 0 kts 348°
2026-04-18 04:16 19.44342 -99.05831 7303 ft 2 kts 348°
2026-04-18 04:16 19.44350 -99.05832 7303 ft 1 kts 347°
2026-04-18 04:16 19.44362 -99.05836 7303 ft 3 kts 346°
2026-04-18 04:17 19.44379 -99.05849 7303 ft 4 kts 309°
2026-04-18 04:17 19.44384 -99.05879 7303 ft 5 kts 263°
2026-04-18 04:17 19.44367 -99.05915 7303 ft 6 kts 239°
2026-04-18 04:17 19.44342 -99.05957 7303 ft 7 kts 238°
2026-04-18 04:18 19.44322 -99.06012 7303 ft 9 kts 264°
2026-04-18 04:18 19.44329 -99.06047 7303 ft 0 kts 288°
2026-04-18 04:18 19.44330 -99.06050 7303 ft 0 kts 288°
2026-04-18 04:18 19.44330 -99.06052 7303 ft 0 kts 288°
2026-04-18 04:19 19.44331 -99.06054 7303 ft 1 kts 289°
2026-04-18 04:19 19.44335 -99.06066 7303 ft 2 kts 289°
2026-04-18 04:19 19.44342 -99.06086 7303 ft 3 kts 289°
2026-04-18 04:19 19.44351 -99.06114 7303 ft 5 kts 293°